User: anonymous   Login
Location: Hastringsfeld
(50.9620°N, 10.4787°E)
Time: 23:56:26
(UTC+00:00)
Language:

Cosmos 1933 - Orbit

View from above orbital plane
View from above orbital plane
View from above satellite
View from above satellite

Ground track
Ground track

The orbit data is extracted from the following two-line orbital elements,

1 18958U 88020A   24055.60769646  .00003638  00000-0  22972-3 0  9994
2 18958  82.5246 261.9167 0002721 271.9449  88.1468 15.08801589937717
Epoch (UTC): 24 February 2024 14:35:04
Eccentricity: 0.0002721
inclination: 82.5246°
perigee height: 538 km
apogee height: 542 km
right ascension of ascending node: 261.9167°
argument of perigee: 271.9449°
revolutions per day: 15.08801589
mean anomaly at epoch: 88.1468°
orbit number at epoch: 93771

The dashed part of the orbit path shows where the satellite is in the earth's shadow,  

DLR